When you browse on this site, cookies collect data to enhance your experience and personalize the content and advertising you see.
Visit our Privacy Policy to learn more. By continuing to use the site, you agree to this use of cookies and data.
  • In Austria
  • List of Countries
  • For 7 days
  • Water Temperature
  • Weather Map
  • News
  • Weather Widgets
  • user-avatar
    Login

    Hourly Weather Riquewihr

    Today, 20 August, Tuesday

    Time Temperature Precipitation Wind Pressure Humidity
    00:00 +15°C° 0 mm 1 mps 736 mmHg 90%
    01:00 +15°C° 0 mm 1 mps 736 mmHg 89%
    02:00 +15°C° 0 mm 1 mps 736 mmHg 88%
    03:00 +15°C° 0 mm 1 mps 736 mmHg 87%
    04:00 +15°C° 0 mm 1 mps 736 mmHg 86%
    05:00 +15°C° 0 mm 1 mps 736 mmHg 85%
    06:00 +16°C° 0 mm 2 mps 737 mmHg 81%
    07:00 +18°C° 0 mm 1 mps 737 mmHg 78%
    08:00 +18°C° 0 mm 1 mps 737 mmHg 75%
    09:00 +19°C° 0 mm 1 mps 737 mmHg 72%
    10:00 +19°C° 0.2 mm 1 mps 738 mmHg 74%
    11:00 +19°C° 0.2 mm 1 mps 738 mmHg 75%
    12:00 +19°C° 0.2 mm 1 mps 738 mmHg 77%
    13:00 +18°C° 0.5 mm 1 mps 739 mmHg 80%
    14:00 +18°C° 0.5 mm 1 mps 739 mmHg 83%
    15:00 +16°C° 0.5 mm 1 mps 739 mmHg 86%
    16:00 +16°C° 0.7 mm 1 mps 739 mmHg 88%
    17:00 +16°C° 0.7 mm 1 mps 740 mmHg 90%
    18:00 +15°C° 0.7 mm 1 mps 740 mmHg 92%
    19:00 +15°C° 0.1 mm 1 mps 740 mmHg 93%
    20:00 +14°C° 0.1 mm 1 mps 741 mmHg 94%
    21:00 +13°C° 0.1 mm 1 mps 741 mmHg 95%
    22:00 +13°C° 0 mm 1 mps 741 mmHg 94%
    23:00 +12°C° 0 mm 1 mps 741 mmHg 94%

    Tomorrow, 21 August, Wednesday

    Time Temperature Precipitation Wind Pressure Humidity
    00:00 +11°C° 0 mm 0 mps 741 mmHg 93%
    01:00 +10°C° 0 mm 0 mps 741 mmHg 93%
    02:00 +10°C° 0 mm 0 mps 740 mmHg 92%
    03:00 +10°C° 0 mm 0 mps 740 mmHg 92%
    04:00 +12°C° 0 mm 1 mps 740 mmHg 91%
    05:00 +12°C° 0 mm 1 mps 740 mmHg 89%
    06:00 +13°C° 0 mm 1 mps 740 mmHg 88%
    07:00 +15°C° 0 mm 2 mps 740 mmHg 80%
    08:00 +17°C° 0 mm 2 mps 741 mmHg 71%
    09:00 +19°C° 0 mm 3 mps 741 mmHg 63%
    10:00 +20°C° 0 mm 3 mps 740 mmHg 60%
    11:00 +21°C° 0 mm 4 mps 740 mmHg 56%
    12:00 +22°C° 0 mm 4 mps 740 mmHg 53%
    13:00 +22°C° 0 mm 4 mps 739 mmHg 53%
    14:00 +22°C° 0 mm 4 mps 739 mmHg 54%
    15:00 +23°C° 0 mm 4 mps 739 mmHg 54%
    16:00 +21°C° 0 mm 4 mps 739 mmHg 61%
    17:00 +20°C° 0 mm 3 mps 739 mmHg 68%
    18:00 +18°C° 0 mm 3 mps 739 mmHg 75%
    19:00 +17°C° 0 mm 2 mps 739 mmHg 79%
    20:00 +16°C° 0 mm 2 mps 739 mmHg 83%
    21:00 +15°C° 0 mm 2 mps 738 mmHg 87%
    22:00 +15°C° 0 mm 2 mps 738 mmHg 88%
    23:00 +14°C° 0 mm 1 mps 738 mmHg 90%

    Day after tomorrow, 22 August, Thursday

    Time Temperature Precipitation Wind Pressure Humidity
    00:00 +13°C° 0 mm 1 mps 738 mmHg 91%
    01:00 +13°C° 0 mm 1 mps 738 mmHg 92%
    02:00 +13°C° 0 mm 1 mps 738 mmHg 92%
    03:00 +13°C° 0 mm 1 mps 738 mmHg 93%
    04:00 +13°C° 0 mm 1 mps 738 mmHg 91%
    05:00 +14°C° 0 mm 1 mps 738 mmHg 90%
    06:00 +14°C° 0 mm 1 mps 738 mmHg 88%
    07:00 +16°C° 0 mm 1 mps 738 mmHg 81%
    08:00 +18°C° 0 mm 2 mps 739 mmHg 75%
    09:00 +20°C° 0 mm 2 mps 739 mmHg 68%
    10:00 +23°C° 0 mm 2 mps 739 mmHg 65%
    11:00 +24°C° 0 mm 2 mps 738 mmHg 62%
    12:00 +25°C° 0 mm 2 mps 738 mmHg 59%
    13:00 +25°C° 0 mm 2 mps 738 mmHg 59%
    14:00 +26°C° 0 mm 2 mps 738 mmHg 59%
    15:00 +26°C° 0 mm 2 mps 738 mmHg 58%
    16:00 +24°C° 0 mm 1 mps 738 mmHg 65%
    17:00 +23°C° 0 mm 1 mps 738 mmHg 72%
    18:00 +22°C° 0 mm 1 mps 738 mmHg 79%
    19:00 +20°C° 0 mm 1 mps 738 mmHg 82%
    20:00 +19°C° 0 mm 1 mps 738 mmHg 86%
    21:00 +18°C° 0 mm 1 mps 738 mmHg 90%
    22:00 +18°C° 0 mm 1 mps 738 mmHg 91%
    23:00 +16°C° 0 mm 1 mps 738 mmHg 92%

    23 August, Friday

    Time Temperature Precipitation Wind Pressure Humidity
    00:00 +16°C° 0 mm 1 mps 738 mmHg 93%
    01:00 +15°C° 0 mm 1 mps 738 mmHg 93%
    02:00 +15°C° 0 mm 1 mps 738 mmHg 94%
    03:00 +15°C° 0 mm 1 mps 737 mmHg 94%
    04:00 +15°C° 0 mm 1 mps 738 mmHg 93%
    05:00 +16°C° 0 mm 1 mps 738 mmHg 91%
    06:00 +16°C° 0 mm 1 mps 738 mmHg 89%
    07:00 +19°C° 0 mm 1 mps 738 mmHg 82%
    08:00 +21°C° 0 mm 1 mps 738 mmHg 74%
    09:00 +23°C° 0 mm 2 mps 738 mmHg 66%
    10:00 +24°C° 0 mm 2 mps 738 mmHg 63%
    11:00 +25°C° 0 mm 2 mps 738 mmHg 60%
    12:00 +27°C° 0 mm 2 mps 737 mmHg 57%
    13:00 +27°C° 0 mm 2 mps 737 mmHg 57%
    14:00 +27°C° 0 mm 2 mps 737 mmHg 57%
    15:00 +27°C° 0 mm 2 mps 736 mmHg 56%
    16:00 +26°C° 0 mm 2 mps 736 mmHg 63%
    17:00 +24°C° 0 mm 2 mps 736 mmHg 70%
    18:00 +23°C° 0 mm 2 mps 736 mmHg 77%
    19:00 +22°C° 0 mm 1 mps 736 mmHg 80%
    20:00 +21°C° 0 mm 1 mps 736 mmHg 83%
    21:00 +19°C° 0 mm 1 mps 736 mmHg 87%
    22:00 +19°C° 0 mm 1 mps 736 mmHg 88%
    23:00 +19°C° 0 mm 1 mps 736 mmHg 89%

    24 August, Saturday

    Time Temperature Precipitation Wind Pressure Humidity
    00:00 +18°C° 0 mm 1 mps 736 mmHg 91%
    01:00 +16°C° 0 mm 0 mps 736 mmHg 92%
    02:00 +16°C° 0 mm 0 mps 736 mmHg 92%
    03:00 +16°C° 0 mm 0 mps 735 mmHg 93%
    04:00 +16°C° 0 mm 0 mps 736 mmHg 92%
    05:00 +17°C° 0 mm 0 mps 736 mmHg 90%
    06:00 +17°C° 0 mm 0 mps 736 mmHg 89%
    07:00 +19°C° 0 mm 0 mps 736 mmHg 82%
    08:00 +23°C° 0 mm 1 mps 736 mmHg 75%
    09:00 +25°C° 0 mm 1 mps 736 mmHg 69%
    10:00 +26°C° 0 mm 1 mps 736 mmHg 65%
    11:00 +27°C° 0 mm 1 mps 736 mmHg 61%
    12:00 +29°C° 0 mm 1 mps 735 mmHg 57%
    13:00 +29°C° 0 mm 1 mps 735 mmHg 57%
    14:00 +29°C° 0 mm 1 mps 735 mmHg 57%
    15:00 +29°C° 0 mm 1 mps 734 mmHg 56%
    16:00 +27°C° 0 mm 1 mps 734 mmHg 64%
    17:00 +23°C° 0 mm 0 mps 734 mmHg 72%
    18:00 +22°C° 0 mm 0 mps 734 mmHg 80%
    19:00 +21°C° 0 mm 0 mps 734 mmHg 82%
    20:00 +20°C° 0 mm 0 mps 734 mmHg 85%
    21:00 +21°C° 0 mm 1 mps 735 mmHg 88%
    22:00 +19°C° 0 mm 0 mps 734 mmHg 88%
    23:00 +18°C° 0 mm 0 mps 734 mmHg 89%

    25 August, Sunday

    Time Temperature Precipitation Wind Pressure Humidity
    00:00 +18°C° 0 mm 0 mps 734 mmHg 89%
    01:00 +18°C° 0 mm 0 mps 734 mmHg 90%
    02:00 +17°C° 0 mm 0 mps 734 mmHg 90%
    03:00 +17°C° 0 mm 0 mps 734 mmHg 90%
    04:00 +18°C° 0 mm 0 mps 734 mmHg 89%
    05:00 +18°C° 0 mm 0 mps 734 mmHg 88%
    06:00 +19°C° 0 mm 0 mps 734 mmHg 87%
    07:00 +21°C° 0 mm 0 mps 735 mmHg 80%
    08:00 +23°C° 0 mm 0 mps 735 mmHg 72%
    09:00 +27°C° 0 mm 1 mps 735 mmHg 65%
    10:00 +28°C° 0 mm 1 mps 735 mmHg 60%
    11:00 +29°C° 0 mm 1 mps 735 mmHg 55%
    12:00 +30°C° 0 mm 1 mps 735 mmHg 50%
    13:00 +30°C° 0 mm 1 mps 735 mmHg 50%
    14:00 +30°C° 0 mm 1 mps 735 mmHg 49%
    15:00 +30°C° 0 mm 1 mps 734 mmHg 49%
    16:00 +28°C° 0 mm 1 mps 734 mmHg 56%
    17:00 +26°C° 0 mm 1 mps 735 mmHg 63%
    18:00 +23°C° 0 mm 0 mps 735 mmHg 71%
    19:00 +24°C° 0 mm 1 mps 735 mmHg 72%
    20:00 +23°C° 0 mm 1 mps 735 mmHg 73%
    21:00 +22°C° 0 mm 1 mps 735 mmHg 74%
    22:00 +21°C° 0 mm 1 mps 735 mmHg 76%
    23:00 +21°C° 0 mm 1 mps 735 mmHg 78%
    Show more